Location: La Trinit�
(48.1620°N, 3.4512°W)
Time: 15:51:52
(UTC+00:00)

Meteor 1-25 Rocket - Pass Details

Date: 08 May 2021
Orbit: 838 x 890 km, 81.2° (Epoch: 24 June)

Event Time Altitude Azimuth Distance (km) Brightness Sun altitude
Rises 21:03:03 0° 347° (NNW) 3,501 8.5 -12.3°
Reaches altitude 10° 21:05:30 10° 345° (NNW) 2,562 7.7 -12.6°
Maximum altitude 21:11:20 75° 262° (W) 924 4.5 -13.3°
Enters shadow 21:17:00 11° 178° (S) 2,495 6.2 -14.0°
